Flag for Sierra Leone Weather past 2 weeks in Kenema, Sierra Leone

Now
75 °F

Thunderstorms. Passing clouds.


Feels Like: 74 °F
Forecast: 72 / 90 °F
Wind: 5 mph from Southwest

Location: Roberts Field

Current Time: Apr 22, 2015 at 2:24:49 AM

Latest Report: Apr 22, 2015 at 12:30 AM


Visibility: 6 mi

Pressure: 29.92 "Hg

Humidity: 94%

Dew point: 73 °F

Location of KenemaLocation

Historic Weather in Kenema — Graph

°F

Kenema temperature yesterday

Maximum temperature yesterday: 93 °F (at 1:30 PM)
Minimum temperature yesterday: 75 °F (at 3:30 AM)
Average temperature yesterday: 82 °F

Past Weeks' High & Low Weather Summary

 TemperatureHumidityPressure
High93 °F (Apr 9, 1:30 PM)100% (Apr 11, 3:30 AM)30.01 "Hg (Apr 11, 3:30 AM)
Low73 °F (Apr 8, 5:30 AM)55% (Apr 17, 5:00 PM)29.77 "Hg (Apr 7, 4:00 PM)
Average82 °F85%29.87 "Hg
* Reported Apr 7 1:00 AM — Apr 22 12:30 AM, Kenema, Weather by CustomWeather, © 2015

Note: Actual official high and low records may vary slightly from our data, if they occured in-between our weather recording intervals... More about our weather records

Advertising

Kenema weather history for previous 24 hours

 ConditionsComfort  
Time TempWeatherWind HumidityBarometerVisibility
12:30 AM
Wed, Apr 22
75 °FThunderstorms. Passing clouds.5 mph94%29.92 "Hg6 mi
12:00 AM75 °FThunderstorms. Passing clouds.10 mph94%29.86 "Hg5 mi
11:30 PM
Tue, Apr 21
75 °FThunderstorms. Passing clouds.3 mph94%29.92 "HgN/A
10:30 PM77 °FStrong thunderstorms. Passing clouds.12 mph94%29.89 "Hg5 mi
10:00 PM82 °FThunderstorms. Passing clouds.10 mph89%29.89 "Hg5 mi
9:00 PM82 °FThunderstorms. Passing clouds.No wind89%29.86 "HgN/A
8:30 PM82 °FThunderstorms. Passing clouds.No wind89%29.86 "HgN/A
8:00 PM82 °FThunderstorms. Passing clouds.6 mph89%29.83 "HgN/A
7:30 PM84 °FThunderstorms. Scattered clouds.5 mph84%29.83 "HgN/A
7:00 PM84 °FThunderstorms. Scattered clouds.7 mph84%29.83 "HgN/A
6:30 PM86 °FThunderstorms. Scattered clouds.7 mph75%29.80 "HgN/A
6:00 PM86 °FThunderstorms. Scattered clouds.12 mph75%29.80 "HgN/A
5:30 PM86 °FThunderstorms. Partly sunny.8 mph75%29.80 "HgN/A
5:00 PM88 °FThunderstorms. Scattered clouds.12 mph75%29.80 "HgN/A
4:30 PM86 °FScattered clouds.10 mph75%29.77 "HgN/A
4:00 PM88 °FScattered clouds.12 mph70%29.80 "HgN/A
3:30 PM88 °FScattered clouds.10 mph75%29.80 "HgN/A
3:00 PM90 °FSprinkles. Scattered clouds.14 mph67%29.80 "Hg6 mi
2:30 PM91 °FScattered clouds.9 mph67%29.80 "HgN/A
2:00 PM91 °FScattered clouds.7 mph63%29.83 "HgN/A
1:30 PM93 °FPartly sunny.14 mph63%29.83 "HgN/A
1:00 PM91 °FPartly sunny.3 mph63%29.86 "HgN/A
12:30 PM91 °FPartly sunny.6 mph67%29.86 "HgN/A
12:00 PM90 °FPartly sunny.5 mph67%29.86 "HgN/A
11:30 AM88 °FPartly sunny.No wind70%29.89 "HgN/A
11:00 AM88 °FPartly sunny.No wind75%29.89 "HgN/A
10:30 AM88 °FPartly sunny.8 mph75%29.89 "HgN/A
10:00 AM86 °FScattered clouds.No wind79%29.89 "HgN/A
9:30 AM84 °FSunny.No wind79%29.89 "Hg10 mi
9:00 AM82 °FPassing clouds.No wind79%29.89 "HgN/A
8:30 AM79 °FScattered clouds.No wind89%29.89 "HgN/A
8:00 AM79 °FScattered clouds.No wind89%29.86 "HgN/A
7:30 AM77 °FPassing clouds.No wind89%29.86 "HgN/A
7:00 AM75 °FPassing clouds.No wind94%29.86 "HgN/A
6:30 AM75 °FPassing clouds.No wind94%29.83 "HgN/A
6:00 AM75 °FPassing clouds.No wind94%29.83 "HgN/A
5:30 AM75 °FPassing clouds.No wind94%29.83 "HgN/A
5:00 AM75 °FPassing clouds.No wind94%29.83 "HgN/A
4:30 AM75 °FPassing clouds.No wind94%29.83 "HgN/A
4:00 AM75 °FPassing clouds.No wind94%29.83 "HgN/A
3:30 AM75 °FPassing clouds.No wind94%29.80 "HgN/A
3:00 AM77 °FPassing clouds.No wind94%29.83 "HgN/A
2:30 AM77 °FPassing clouds.No wind94%29.83 "HgN/A
2:00 AM77 °FPassing clouds.No wind94%29.83 "HgN/A
Weather by CustomWeather, © 2015

See weather overviewHow to use our weather pages